Weather History for KVEL - December, 2012

Change the Weather History Date:

Friday, December 7, 2012

  Actual Average Record
Temperature  
Mean Temperature 36 °F 24 °F  
Max Temperature 47 °F 33 °F - ()
Min Temperature 24 °F 15 °F - ()
Degree Days  
Heating Degree Days 29 41  
Month to date heating degree days 197 280  
Since 1 July heating degree days 1545 1911  
Cooling Degree Days 0 0  
Month to date cooling degree days 0 0  
Year to date cooling degree days 810 511  
Moisture  
Dew Point 21 °F    
Average Humidity 61    
Maximum Humidity 85    
Minimum Humidity 37    
Precipitation  
Precipitation 0.00 in 0.02 in - ()
Month to date precipitation 0.01 0.12  
Year to date precipitation 4.00 8.79  
Sea Level Pressure  
Sea Level Pressure 29.98 in    
Wind  
Wind Speed 3 mph (WNW)    
Max Wind Speed 14 mph    
Max Gust Speed 16 mph    
Visibility 10 miles    
Events      
T = Trace of Precipitation, MM = Missing Value Source: NWS Daily Summary

Daily Weather History Graph

Daily Weather History Graph

Search for Another Location

Airport or City:

Trip Planner

Search our weather history database for the weather conditions in past years. The results will help you decide how hot, cold, wet, or windy it might be!

Date:

Astronomy

Dec. 07, 2012 Rise Set
Actual Time 7:28 AM MST 4:51 PM MST
Civil Twilight 6:57 AM MST 5:21 PM MST
Nautical Twilight 6:23 AM MST 5:55 PM MST
Astronomical Twilight 5:50 AM MST 6:29 PM MST
Moon 12:49 AM MST (12/7) 12:51 PM MST (12/7)
Length of Visible Light 10h 24m
Length of Day
9h 23m
Last Quarter, 38% of the Moon is Illuminated
Dec 7
Last Quarter
Dec 13
New
Dec 19
First Quarter
Dec 28
Full
Jan 4
Last Quarter

Hourly Weather History & Observations

Time (MST) Temp. Windchill Dew Point Humidity Pressure Visibility Wind Dir Wind Speed Gust Speed Precip Events Conditions
12:53 AM 28.0 °F 24.2 °F 24.1 °F 85% 29.93 in 10.0 mi West 3.5 mph - N/A   Clear
1:53 AM 30.9 °F - 25.0 °F 79% 29.92 in 10.0 mi Calm Calm - N/A   Clear
2:53 AM 28.0 °F 22.8 °F 24.1 °F 85% 29.94 in 10.0 mi NNW 4.6 mph - N/A   Clear
3:53 AM 27.0 °F 20.5 °F 21.0 °F 78% 29.94 in 10.0 mi West 5.8 mph - N/A   Clear
4:53 AM 27.0 °F 21.6 °F 21.0 °F 78% 29.96 in 10.0 mi West 4.6 mph - N/A   Clear
5:53 AM 27.0 °F 23.0 °F 19.9 °F 75% 30.00 in 10.0 mi West 3.5 mph - N/A   Clear
6:53 AM 26.1 °F - 19.9 °F 78% 30.02 in 10.0 mi Calm Calm - N/A   Clear
7:53 AM 25.0 °F 18.1 °F 19.0 °F 78% 30.03 in 10.0 mi WNW 5.8 mph - N/A   Clear
8:53 AM 33.1 °F - 24.1 °F 70% 30.03 in 10.0 mi Calm Calm - N/A   Clear
9:53 AM 39.9 °F - 26.1 °F 58% 30.02 in 10.0 mi Calm Calm - N/A   Clear
10:53 AM 42.1 °F - 27.0 °F 55% 30.01 in 10.0 mi Calm Calm - N/A   Clear
11:53 AM 42.1 °F 40.2 °F 27.0 °F 55% 29.99 in 10.0 mi SE 3.5 mph - N/A   Clear
12:53 PM 44.1 °F - 27.0 °F 51% 29.98 in 10.0 mi Calm Calm - N/A   Clear
1:53 PM 45.0 °F - 24.1 °F 44% 29.95 in 10.0 mi Calm Calm - N/A   Overcast
2:53 PM 45.0 °F 43.5 °F 19.9 °F 37% 29.94 in 10.0 mi Variable 3.5 mph - N/A   Overcast
3:53 PM 44.1 °F 39.5 °F 23.0 °F 43% 29.96 in 10.0 mi North 8.1 mph - N/A   Scattered Clouds
4:53 PM 41.0 °F 39.0 °F 23.0 °F 49% 29.98 in 10.0 mi WSW 3.5 mph - N/A   Clear
5:53 PM 37.0 °F 31.0 °F 16.0 °F 42% 29.99 in 10.0 mi WSW 8.1 mph - N/A   Clear
6:53 PM 35.1 °F 31.0 °F 14.0 °F 42% 30.01 in 10.0 mi West 4.6 mph - N/A   Clear
7:53 PM 30.9 °F - 17.1 °F 57% 30.04 in 10.0 mi Calm Calm - N/A   Clear
8:53 PM 30.0 °F 25.2 °F 16.0 °F 56% 30.01 in 10.0 mi East 4.6 mph - N/A   Clear
9:53 PM 26.1 °F - 16.0 °F 66% 29.99 in 10.0 mi Calm Calm - N/A   Clear
10:53 PM 27.0 °F 19.5 °F 16.0 °F 63% 29.97 in 10.0 mi NNW 6.9 mph - N/A   Clear
11:53 PM 28.0 °F 22.8 °F 16.0 °F 61% 29.96 in 10.0 mi North 4.6 mph - N/A   Clear